Home > Weather > Merseburg > Past weeks

Flag for Germany Past Weather in Merseburg, Saxony-Anhalt, Germany — Yesterday and Last 2 Weeks

Now
75 °F

Sunny.


Feels Like: 78 °F
Forecast: 54 / 71 °F
Wind: 16 mph from West

Location: Leipzig-Schkeuditz

Current Time: Jun 29, 2016 at 6:25:42 PM

Latest Report: Jun 29, 2016 at 5:50 PM


Visibility: 10 mi

Pressure: 29.86 "Hg

Humidity: 44%

Dew Point: 52 °F

Location of MerseburgLocation

Past Weather in Merseburg — Graph

°F

Merseburg Temperature Yesterday

Maximum temperature yesterday: 72 °F (at 2:50 PM)
Minimum temperature yesterday: 59 °F (at 11:20 PM)
Average temperature yesterday: 65 °F

High & Low Weather Summary for the Past Weeks

 TemperatureHumidityPressure
High93 °F (Jun 24, 2:50 PM)100% (Jun 17, 3:20 AM)30.24 "Hg (Jun 17, 3:20 AM)
Low48 °F (Jun 20, 5:20 AM)30% (Jun 24, 2:50 PM)29.50 "Hg (Jun 14, 5:20 PM)
Average66 °F71%29.96 "Hg
* Reported Jun 14 5:20 PM — Jun 29 5:20 PM, Merseburg, Weather by CustomWeather, © 2016

Note: Actual official high and low records may vary slightly from our data, if they occured in-between our weather recording intervals... More about our weather records

Advertising

Merseburg Weather History for the Previous 24 Hours

Scroll right to see more
 ConditionsComfort  
Time TempWeatherWind HumidityBarometerVisibility
5:20 PM
Wed, Jun 29
77 °FSunny.17 mph42%29.89 "Hg10 mi
4:50 PM77 °FSunny.15 mph42%29.89 "Hg10 mi
4:20 PM79 °FSunny.17 mph39%29.89 "Hg10 mi
3:50 PM79 °FSunny.15 mph42%29.89 "Hg10 mi
3:20 PM77 °FPassing clouds.14 mph44%29.89 "HgN/A
2:50 PM79 °FSunny.22 mph39%29.86 "Hg10 mi
2:20 PM79 °FPassing clouds.25 mph39%29.86 "HgN/A
1:50 PM77 °FPassing clouds.21 mph44%29.86 "HgN/A
1:20 PM77 °FPartly sunny.20 mph51%29.86 "HgN/A
12:50 PM75 °FPartly sunny.15 mph50%29.89 "HgN/A
12:20 PM75 °FBroken clouds.17 mph50%29.89 "HgN/A
11:50 AM73 °FScattered clouds.16 mph53%29.89 "HgN/A
11:20 AM73 °FScattered clouds.16 mph57%29.89 "HgN/A
10:20 AM72 °FBroken clouds.18 mph61%29.89 "HgN/A
9:50 AM72 °FScattered clouds.20 mph65%29.86 "HgN/A
9:20 AM70 °FScattered clouds.17 mph69%29.89 "HgN/A
8:50 AM68 °FBroken clouds.16 mph73%29.89 "HgN/A
8:20 AM66 °FBroken clouds.14 mph83%29.86 "HgN/A
7:50 AM64 °FSunny.13 mph88%29.86 "Hg10 mi
7:20 AM63 °FBroken clouds.10 mph94%29.86 "HgN/A
6:50 AM63 °FBroken clouds.9 mph94%29.86 "HgN/A
6:20 AM61 °FPartly sunny.8 mph94%29.89 "HgN/A
5:50 AM61 °FPassing clouds.6 mph94%29.89 "HgN/A
5:20 AM61 °FLight rain. Mostly cloudy.8 mph94%29.89 "HgN/A
4:50 AM61 °FLight rain. Mostly cloudy.12 mph94%29.89 "HgN/A
4:20 AM63 °FLight rain. Partly cloudy.12 mph83%29.89 "HgN/A
3:50 AM61 °FLight rain. Passing clouds.9 mph88%29.89 "HgN/A
3:20 AM61 °FLight rain. Overcast.6 mph88%29.89 "HgN/A
2:50 AM63 °FLight rain. Clear.7 mph77%29.89 "HgN/A
2:20 AM63 °FClear.5 mph77%29.92 "Hg10 mi
1:50 AM63 °FClear.7 mph73%29.92 "Hg10 mi
1:20 AM59 °FPassing clouds.8 mph82%29.92 "HgN/A
12:50 AM59 °FPassing clouds.7 mph82%29.95 "HgN/A
12:20 AM59 °FPassing clouds.7 mph77%29.95 "HgN/A
11:50 PM
Tue, Jun 28
61 °FPassing clouds.7 mph72%29.95 "HgN/A
11:20 PM59 °FClear.7 mph77%29.98 "Hg10 mi
10:50 PM61 °FPassing clouds.7 mph72%29.98 "HgN/A
10:20 PM63 °FPassing clouds.7 mph73%29.98 "HgN/A
9:50 PM64 °FPartly sunny.7 mph68%29.98 "HgN/A
9:20 PM66 °FScattered clouds.6 mph60%29.98 "HgN/A
8:50 PM66 °FSunny.6 mph64%29.98 "Hg10 mi
8:20 PM68 °FSunny.5 mph56%29.98 "Hg10 mi
7:50 PM68 °FSunny.6 mph56%30.01 "Hg10 mi
7:20 PM68 °FSunny.3 mph53%30.01 "Hg10 mi
6:50 PM68 °FPassing clouds.5 mph56%30.01 "HgN/A
6:20 PM68 °FSunny.6 mph56%30.01 "Hg10 mi
Weather by CustomWeather, © 2016

See weather overviewHow to use our weather pages